Weather in Ramenskiy

Russia / Moscow Oblast     56°39′22″N   37°14′08″E
temp.,
°C
wind,
m/s
gust,
m/s
humid.,
%
clouds,
%
prec.,
mm/h
press.,
hPa
HPBL,
m
5 december, sun
sun500:00−8sw269763 0.0 1011169
03:00−9sw119787 0.0 101235
06:00−8ene119499 0.0 101261
09:00−8ene2493100 0.4 1014199
12:00−8ne3590100 0.6 1015279
15:00−7ne3592100 1.0 1016301
18:00−9ne379398 0.3 1017267
21:00−10ne379385 0.4 1018272
6 december, mon
mon600:00−11ne3692100 0.3 1020250
03:00−10ne3593100 0.6 1021235
06:00−11ne3693100 0.1 1021242
09:00−10ene3693100 0.3 1022236
12:00−8e3590100 0.2 1022259
15:00−6ene2593100 0.4 1022223
18:00−5e3794100 0.1 1021215
21:00−4ese3895100 0.2 1021294
7 december, tue
tue700:00−4ese3989100 0.0 1020329
03:00−4ese41085100 0.0 1019381
06:00−4ese41196100 0.4 1016484
09:00−3se41396100 3.2 1014614
12:00−1se41196100 2.4 1012605
15:00−1se3897100 3.2 1011457
18:00−1se2699100 0.7 1010248
21:00−1ese1399100 1.6 1010127
8 december, wed
wed800:000nnw01100100 1.6 1009137
03:00−1nw2499100 2.9 1009167
06:00−3wnw2598100 0.2 1011109
09:00−7nw269775 0.3 1013120
12:00−6nw249372 0.0 1015188
15:00−7nw259564 0.0 1017146
18:00−11nnw239888 0.0 101956
21:00−12n269793 0.0 1020132
9 december, thu
thu900:00−13nne279644 0.0 1020141
03:00−11nne3894100 0.1 1020204
06:00−9nne3995100 0.6 1020258
09:00−8nne3995100 1.4 1019276
12:00−7nne3895100 1.3 1019278
15:00−6nne3796100 2.4 1018279
18:00−7nne3895100 1.5 1018310
21:00−7nne379582 1.9 1018264